Location: Munkebjergskolens Observatorium
(55.3864°N, 10.3987°E)
Time: 04:55:00
(UTC+02:00)

KKS-1 - Pass Details

Date: 05 April 2023
Orbit: 633 x 644 km, 98.2° (Epoch: 31 May)

Event Time Altitude Azimuth Distance (km) Brightness Sun altitude
Rises 01:26:45 0° 9° (N) 2,946 ? -28.7°
Reaches altitude 10° 01:29:15 10° 356° (N) 2,033 ? -28.7°
Maximum altitude 01:32:50 25° 302° (WNW) 1,296 ? -28.7°
Enters shadow 01:33:00 25° 298° (WNW) 1,298 ? -28.7°
